Project,Study,Ord_Occ,Event_Num,Date_Time_UTC,Date_Time_PST,Lat_Dec,Lon_Dec,Sta_ID,Line,Sta,Depth,Pressure,Temp0,Temp1,Salt0,CorrSalt0,Salt1,CorrSalt1,O2ml/L,AveCorrO2ml/L,StaCorrO2ml/L,FluorV,AveEstChl,StaEstChl,ISUSV,AveEstNO3,StaEstNO3,SigThetaTS0,SigThetaTS1,BAT,XMiss,SPAR,PAR,BTL_Depth,BTL_Temp,BTL_Salt,BTL_O2ml/L,BTL_Chl,BTL_Pha,BTL_NO3
CalCOFI,0804JD,039,,02-Apr-2008 19:44:18,02-Apr-2008 11:44:18,32.33279,-121.69334,086.7 080.0,086.7,080.0,514.000,518.269,5.7475,5.7509,34.2841,34.2817,34.2763,34.2779,0.36986,0.36,0.36,0.0230,,,1.5863,41.78,40.839,27.0239,27.0174,0.1939,95.2677,0.0000e+00,-1.027e-05,514,5.74 ,34.277,  .32,,,41.0
CalCOFI,0804JD,039,,02-Apr-2008 19:45:29,02-Apr-2008 11:45:29,32.33299,-121.69334,086.7 080.0,086.7,080.0,513.000,517.259,5.7413,5.7427,34.2830,34.2806,34.2765,34.2781,0.36444,0.36,0.35,0.0236,,,1.5825,41.67,40.719,27.0239,27.0185,0.1941,95.2631,0.0000e+00,6.3506e-05,,,,,,,
CalCOFI,0804JD,039,,02-Apr-2008 19:46:02,02-Apr-2008 11:46:02,32.33317,-121.69334,086.7 080.0,086.7,080.0,512.000,516.250,5.7449,5.7472,34.2834,34.2810,34.2756,34.2772,0.36583,0.36,0.35,0.0234,,,1.5984,42.15,41.219,27.0238,27.0172,0.1937,95.2736,0.0000e+00,-1.195e-06,,,,,,,
CalCOFI,0804JD,039,,02-Apr-2008 19:46:02,02-Apr-2008 11:46:02,32.33316,-121.69334,086.7 080.0,086.7,080.0,511.000,515.240,5.7628,5.7630,34.2842,34.2818,34.2765,34.2781,0.36585,0.36,0.35,0.0233,,,1.5853,41.75,40.807,27.0221,27.0160,0.1942,95.2598,0.0000e+00,1.0000e-12,,,,,,,
CalCOFI,0804JD,039,,02-Apr-2008 19:46:03,02-Apr-2008 11:46:03,32.33316,-121.69334,086.7 080.0,086.7,080.0,510.000,514.231,5.7731,5.7768,34.2847,34.2823,34.2767,34.2783,0.36598,0.36,0.35,0.0234,,,1.6113,42.55,41.624,27.0213,27.0145,0.1938,95.2714,0.0000e+00,1.0000e-12,,,,,,,
CalCOFI,0804JD,039,,02-Apr-2008 19:46:04,02-Apr-2008 11:46:04,32.33316,-121.69334,086.7 080.0,086.7,080.0,509.000,513.221,5.7829,5.7846,34.2825,34.2801,34.2745,34.2761,0.36725,0.36,0.35,0.0238,,,1.5595,40.96,39.996,27.0183,27.0118,0.1943,95.2595,0.0000e+00,1.0000e-12,,,,,,,
CalCOFI,0804JD,039,,02-Apr-2008 19:46:05,02-Apr-2008 11:46:05,32.33316,-121.69334,086.7 080.0,086.7,080.0,508.000,512.212,5.8051,5.8086,34.2842,34.2818,34.2765,34.2781,0.36890,0.36,0.36,0.0237,,,1.5201,39.76,38.758,27.0169,27.0103,0.1944,95.2567,0.0000e+00,1.0000e-12,,,,,,,
CalCOFI,0804JD,039,,02-Apr-2008 19:46:06,02-Apr-2008 11:46:06,32.33316,-121.69334,086.7 080.0,086.7,080.0,507.000,511.202,5.8104,5.8130,34.2815,34.2791,34.2749,34.2765,0.37070,0.36,0.36,0.0238,,,1.5511,40.71,39.732,27.0141,27.0085,0.1942,95.2604,0.0000e+00,1.0000e-12,,,,,,,
CalCOFI,0804JD,039,,02-Apr-2008 19:46:07,02-Apr-2008 11:46:07,32.33316,-121.69334,086.7 080.0,086.7,080.0,506.000,510.193,5.7949,5.7963,34.2779,34.2755,34.2715,34.2731,0.37384,0.37,0.36,0.0232,,,1.5944,42.03,41.093,27.0131,27.0079,0.1940,95.2662,0.0000e+00,1.0000e-12,,,,,,,
CalCOFI,0804JD,039,,02-Apr-2008 19:46:08,02-Apr-2008 11:46:08,32.33316,-121.69334,086.7 080.0,086.7,080.0,505.000,509.183,5.7918,5.7935,34.2764,34.2740,34.2687,34.2703,0.37557,0.37,0.36,0.0233,,,1.5964,42.09,41.156,27.0124,27.0060,0.1939,95.2680,0.0000e+00,1.0000e-12,,,,,,,
CalCOFI,0804JD,039,,02-Apr-2008 19:46:09,02-Apr-2008 11:46:09,32.33316,-121.69334,086.7 080.0,086.7,080.0,504.000,508.174,5.8051,5.8084,34.2762,34.2738,34.2686,34.2702,0.37811,0.37,0.37,0.0238,,,1.5794,41.57,40.622,27.0105,27.0041,0.1950,95.2413,0.0000e+00,1.0000e-12,,,,,,,
CalCOFI,0804JD,039,,02-Apr-2008 19:46:10,02-Apr-2008 11:46:10,32.33316,-121.69334,086.7 080.0,086.7,080.0,503.000,507.164,5.8137,5.8148,34.2758,34.2734,34.2685,34.2701,0.38184,0.37,0.37,0.0234,,,1.5761,41.47,40.518,27.0092,27.0032,0.1943,95.2574,0.0000e+00,1.0000e-12,,,,,,,
CalCOFI,0804JD,039,,02-Apr-2008 19:46:11,02-Apr-2008 11:46:11,32.33316,-121.69334,086.7 080.0,086.7,080.0,502.000,506.155,5.8206,5.8225,34.2755,34.2731,34.2683,34.2699,0.38244,0.37,0.37,0.0235,,,1.5400,40.37,39.384,27.0080,27.0021,0.1942,95.2597,0.0000e+00,1.0000e-12,,,,,,,
CalCOFI,0804JD,039,,02-Apr-2008 19:46:12,02-Apr-2008 11:46:12,32.33316,-121.69334,086.7 080.0,086.7,080.0,501.000,505.145,5.8234,5.8257,34.2753,34.2729,34.2682,34.2698,0.38564,0.38,0.37,0.0235,,,1.5187,39.71,38.714,27.0076,27.0016,0.1937,95.2718,0.0000e+00,1.0000e-12,,,,,,,
CalCOFI,0804JD,039,,02-Apr-2008 19:46:13,02-Apr-2008 11:46:13,32.33316,-121.69334,086.7 080.0,086.7,080.0,500.000,504.136,5.8253,5.8273,34.2749,34.2725,34.2678,34.2694,0.38632,0.38,0.37,0.0238,,,1.5411,40.40,39.418,27.0069,27.0011,0.1947,95.2487,0.0000e+00,1.0000e-12,,,,,,,
CalCOFI,0804JD,039,,02-Apr-2008 19:46:14,02-Apr-2008 11:46:14,32.33316,-121.69334,086.7 080.0,086.7,080.0,499.000,503.126,5.8265,5.8285,34.2747,34.2723,34.2676,34.2692,0.38670,0.38,0.37,0.0235,,,1.5780,41.53,40.578,27.0066,27.0008,0.1956,95.2277,0.0000e+00,1.0000e-12,,,,,,,
CalCOFI,0804JD,039,,02-Apr-2008 19:46:15,02-Apr-2008 11:46:15,32.33316,-121.69334,086.7 080.0,086.7,080.0,498.000,502.117,5.8279,5.8297,34.2745,34.2721,34.2673,34.2689,0.38712,0.38,0.37,0.0235,,,1.6226,42.89,41.979,27.0063,27.0004,0.1947,95.2485,0.0000e+00,1.0000e-12,,,,,,,
CalCOFI,0804JD,039,,02-Apr-2008 19:46:16,02-Apr-2008 11:46:16,32.33316,-121.69334,086.7 080.0,086.7,080.0,497.000,501.107,5.8308,5.8327,34.2740,34.2716,34.2668,34.2684,0.38987,0.38,0.38,0.0234,,,1.5795,41.57,40.625,27.0055,26.9996,0.1951,95.2391,0.0000e+00,1.0000e-12,,,,,,,
CalCOFI,0804JD,039,,02-Apr-2008 19:46:17,02-Apr-2008 11:46:17,32.33316,-121.69334,086.7 080.0,086.7,080.0,496.000,500.098,5.8309,5.8328,34.2712,34.2688,34.2643,34.2659,0.39152,0.38,0.38,0.0234,,,1.5980,42.14,41.206,27.0033,26.9976,0.1938,95.2694,0.0000e+00,1.0000e-12,,,,,,,
CalCOFI,0804JD,039,,02-Apr-2008 19:46:18,02-Apr-2008 11:46:18,32.33316,-121.69334,086.7 080.0,086.7,080.0,495.000,499.088,5.8343,5.8371,34.2709,34.2685,34.2631,34.2647,0.39386,0.39,0.38,0.0239,,,1.5872,41.81,40.867,27.0027,26.9961,0.1939,95.2674,0.0000e+00,1.0000e-12,,,,,,,
CalCOFI,0804JD,039,,02-Apr-2008 19:46:19,02-Apr-2008 11:46:19,32.33316,-121.69334,086.7 080.0,086.7,080.0,494.000,498.079,5.8478,5.8500,34.2710,34.2686,34.2636,34.2652,0.39643,0.39,0.38,0.0233,,,1.5880,41.84,40.892,27.0010,26.9949,0.1939,95.2668,0.0000e+00,1.0000e-12,,,,,,,
CalCOFI,0804JD,039,,02-Apr-2008 19:46:20,02-Apr-2008 11:46:20,32.33316,-121.69334,086.7 080.0,086.7,080.0,493.000,497.069,5.8546,5.8566,34.2699,34.2675,34.2629,34.2645,0.39742,0.39,0.39,0.0234,,,1.6267,43.02,42.108,26.9993,26.9935,0.1948,95.2453,0.0000e+00,1.0000e-12,,,,,,,
CalCOFI,0804JD,039,,02-Apr-2008 19:46:21,02-Apr-2008 11:46:21,32.33316,-121.69334,086.7 080.0,086.7,080.0,492.000,496.060,5.8839,5.8880,34.2699,34.2675,34.2619,34.2635,0.40137,0.39,0.39,0.0227,,,1.5748,41.43,40.477,26.9956,26.9888,0.1948,95.2452,0.0000e+00,1.0000e-12,,,,,,,
CalCOFI,0804JD,039,,02-Apr-2008 19:46:22,02-Apr-2008 11:46:22,32.33316,-121.69334,086.7 080.0,086.7,080.0,491.000,495.050,5.8880,5.8904,34.2668,34.2644,34.2598,34.2614,0.38979,0.38,0.38,0.0236,,,1.5736,41.39,40.439,26.9927,26.9868,0.1943,95.2591,0.0000e+00,1.0000e-12,,,,,,,
CalCOFI,0804JD,039,,02-Apr-2008 19:46:23,02-Apr-2008 11:46:23,32.33316,-121.69334,086.7 080.0,086.7,080.0,490.000,494.041,5.8903,5.8930,34.2669,34.2645,34.2593,34.2609,0.40803,0.40,0.40,0.0233,,,1.5824,41.66,40.716,26.9924,26.9861,0.1949,95.2441,0.0000e+00,1.0000e-12,,,,,,,
CalCOFI,0804JD,039,,02-Apr-2008 19:46:24,02-Apr-2008 11:46:24,32.33316,-121.69334,086.7 080.0,086.7,080.0,489.000,493.031,5.9072,5.9095,34.2677,34.2653,34.2601,34.2617,0.40897,0.40,0.40,0.0241,,,1.6215,42.86,41.945,26.9910,26.9847,0.1956,95.2278,0.0000e+00,1.0000e-12,,,,,,,
CalCOFI,0804JD,039,,02-Apr-2008 19:46:25,02-Apr-2008 11:46:25,32.33316,-121.69334,086.7 080.0,086.7,080.0,488.000,492.022,5.9192,5.9218,34.2677,34.2653,34.2606,34.2622,0.40963,0.40,0.40,0.0236,,,1.5747,41.43,40.474,26.9895,26.9835,0.1947,95.2485,0.0000e+00,1.0000e-12,,,,,,,
CalCOFI,0804JD,039,,02-Apr-2008 19:46:26,02-Apr-2008 11:46:26,32.33316,-121.69334,086.7 080.0,086.7,080.0,487.000,491.012,5.9276,5.9297,34.2678,34.2654,34.2606,34.2622,0.41230,0.40,0.40,0.0232,,,1.5164,39.64,38.642,26.9885,26.9826,0.1947,95.2494,0.0000e+00,1.0000e-12,,,,,,,
CalCOFI,0804JD,039,,02-Apr-2008 19:46:27,02-Apr-2008 11:46:27,32.33316,-121.69334,086.7 080.0,086.7,080.0,486.000,490.003,5.9383,5.9400,34.2672,34.2648,34.2598,34.2614,0.41471,0.41,0.40,0.0235,,,1.5147,39.59,38.588,26.9866,26.9806,0.1948,95.2474,0.0000e+00,1.0000e-12,,,,,,,
CalCOFI,0804JD,039,,02-Apr-2008 19:46:28,02-Apr-2008 11:46:28,32.33316,-121.69334,086.7 080.0,086.7,080.0,485.000,488.994,5.9492,5.9516,34.2655,34.2631,34.2584,34.2600,0.41650,0.41,0.40,0.0231,,,1.5690,41.25,40.295,26.9840,26.9780,0.1947,95.2492,0.0000e+00,1.0000e-12,,,,,,,
CalCOFI,0804JD,039,,02-Apr-2008 19:46:29,02-Apr-2008 11:46:29,32.33316,-121.69334,086.7 080.0,086.7,080.0,484.000,487.984,5.9512,5.9533,34.2652,34.2628,34.2584,34.2600,0.41804,0.41,0.41,0.0232,,,1.5249,39.90,38.909,26.9835,26.9778,0.1947,95.2492,0.0000e+00,1.0000e-12,,,,,,,
CalCOFI,0804JD,039,,02-Apr-2008 19:46:30,02-Apr-2008 11:46:30,32.33316,-121.69334,086.7 080.0,086.7,080.0,483.000,486.975,5.9522,5.9539,34.2651,34.2627,34.2582,34.2598,0.41996,0.41,0.41,0.0236,,,1.5142,39.58,38.573,26.9832,26.9776,0.1947,95.2479,0.0000e+00,1.0000e-12,,,,,,,
CalCOFI,0804JD,039,,02-Apr-2008 19:46:31,02-Apr-2008 11:46:31,32.33316,-121.69334,086.7 080.0,086.7,080.0,482.000,485.965,5.9532,5.9548,34.2649,34.2625,34.2581,34.2597,0.42250,0.41,0.41,0.0232,,,1.5349,40.21,39.223,26.9830,26.9774,0.1951,95.2384,0.0000e+00,1.0000e-12,,,,,,,
CalCOFI,0804JD,039,,02-Apr-2008 19:46:32,02-Apr-2008 11:46:32,32.33316,-121.69334,086.7 080.0,086.7,080.0,481.000,484.956,5.9626,5.9666,34.2644,34.2620,34.2570,34.2586,0.42419,0.42,0.41,0.0238,,,1.5825,41.67,40.719,26.9813,26.9750,0.1947,95.2479,0.0000e+00,1.0000e-12,,,,,,,
CalCOFI,0804JD,039,,02-Apr-2008 19:46:33,02-Apr-2008 11:46:33,32.33316,-121.69334,086.7 080.0,086.7,080.0,480.000,483.947,5.9759,5.9784,34.2638,34.2614,34.2565,34.2581,0.42710,0.42,0.42,0.0235,,,1.5655,41.15,40.185,26.9792,26.9731,0.1957,95.2248,0.0000e+00,1.0000e-12,,,,,,,
CalCOFI,0804JD,039,,02-Apr-2008 19:46:34,02-Apr-2008 11:46:34,32.33316,-121.69334,086.7 080.0,086.7,080.0,479.000,482.937,5.9899,5.9933,34.2637,34.2613,34.2565,34.2581,0.42816,0.42,0.42,0.0228,,,1.5774,41.51,40.559,26.9774,26.9713,0.1955,95.2294,0.0000e+00,1.0000e-12,,,,,,,
CalCOFI,0804JD,039,,02-Apr-2008 19:46:35,02-Apr-2008 11:46:35,32.33316,-121.69334,086.7 080.0,086.7,080.0,478.000,481.928,5.9957,5.9973,34.2631,34.2607,34.2564,34.2580,0.43078,0.42,0.42,0.0235,,,1.5802,41.60,40.647,26.9762,26.9706,0.1954,95.2332,0.0000e+00,1.0000e-12,,,,,,,
CalCOFI,0804JD,039,,02-Apr-2008 19:46:36,02-Apr-2008 11:46:36,32.33316,-121.69334,086.7 080.0,086.7,080.0,477.000,480.918,5.9989,6.0012,34.2630,34.2606,34.2559,34.2575,0.43207,0.42,0.42,0.0235,,,1.5639,41.10,40.135,26.9757,26.9698,0.1947,95.2489,0.0000e+00,1.0000e-12,,,,,,,
CalCOFI,0804JD,039,,02-Apr-2008 19:46:37,02-Apr-2008 11:46:37,32.33316,-121.69334,086.7 080.0,086.7,080.0,476.000,479.909,6.0063,6.0085,34.2624,34.2600,34.2555,34.2571,0.43402,0.43,0.42,0.0234,,,1.5340,40.18,39.195,26.9742,26.9685,0.1946,95.2511,0.0000e+00,1.0000e-12,,,,,,,
CalCOFI,0804JD,039,,02-Apr-2008 19:46:38,02-Apr-2008 11:46:38,32.33316,-121.69334,086.7 080.0,086.7,080.0,475.000,478.900,6.0133,6.0152,34.2618,34.2594,34.2548,34.2564,0.43638,0.43,0.42,0.0234,,,1.4856,38.70,37.674,26.9729,26.9672,0.1954,95.2325,0.0000e+00,1.0000e-12,,,,,,,
CalCOFI,0804JD,039,,02-Apr-2008 19:46:38,02-Apr-2008 11:46:38,32.33316,-121.69334,086.7 080.0,086.7,080.0,474.000,477.890,6.0201,6.0219,34.2619,34.2595,34.2549,34.2565,0.43924,0.43,0.43,0.0237,,,1.4967,39.04,38.023,26.9721,26.9663,0.1953,95.2338,0.0000e+00,1.0000e-12,,,,,,,
CalCOFI,0804JD,039,,02-Apr-2008 19:46:39,02-Apr-2008 11:46:39,32.33316,-121.69334,086.7 080.0,086.7,080.0,473.000,476.881,6.0332,6.0357,34.2617,34.2593,34.2545,34.2561,0.44156,0.43,0.43,0.0237,,,1.4887,38.80,37.771,26.9703,26.9643,0.1946,95.2521,0.0000e+00,1.0000e-12,,,,,,,
CalCOFI,0804JD,039,,02-Apr-2008 19:46:40,02-Apr-2008 11:46:40,32.33328,-121.69334,086.7 080.0,086.7,080.0,472.000,475.872,6.0442,6.0471,34.2604,34.2580,34.2533,34.2549,0.44378,0.44,0.43,0.0233,,,1.5043,39.27,38.262,26.9679,26.9619,0.1981,95.1679,0.0000e+00,1.0000e-12,,,,,,,
CalCOFI,0804JD,039,,02-Apr-2008 19:46:41,02-Apr-2008 11:46:41,32.33332,-121.69334,086.7 080.0,086.7,080.0,471.000,474.862,6.0599,6.0618,34.2596,34.2572,34.2526,34.2542,0.44805,0.44,0.44,0.0231,,,1.5641,41.10,40.141,26.9652,26.9595,0.1957,95.2249,0.0000e+00,1.0000e-12,,,,,,,
CalCOFI,0804JD,039,,02-Apr-2008 19:46:43,02-Apr-2008 11:46:43,32.33332,-121.69334,086.7 080.0,086.7,080.0,470.000,473.853,6.0718,6.0762,34.2596,34.2572,34.2528,34.2544,0.44931,0.44,0.44,0.0235,,,1.5803,41.60,40.650,26.9637,26.9578,0.1950,95.2425,0.0000e+00,1.0000e-12,,,,,,,
CalCOFI,0804JD,039,,02-Apr-2008 19:46:44,02-Apr-2008 11:46:44,32.33332,-121.69334,086.7 080.0,086.7,080.0,469.000,472.844,6.0809,6.0842,34.2596,34.2572,34.2529,34.2545,0.45162,0.44,0.44,0.0238,,,1.5796,41.58,40.628,26.9625,26.9569,0.1944,95.2550,0.0000e+00,1.0000e-12,,,,,,,
CalCOFI,0804JD,039,,02-Apr-2008 19:46:45,02-Apr-2008 11:46:45,32.33332,-121.69334,086.7 080.0,086.7,080.0,468.000,471.834,6.0857,6.0872,34.2596,34.2572,34.2532,34.2548,0.45230,0.44,0.44,0.0233,,,1.5808,41.61,40.666,26.9619,26.9567,0.1952,95.2371,0.0000e+00,1.0000e-12,,,,,,,
CalCOFI,0804JD,039,,02-Apr-2008 19:46:45,02-Apr-2008 11:46:45,32.33332,-121.69334,086.7 080.0,086.7,080.0,467.000,470.825,6.0869,6.0881,34.2594,34.2570,34.2531,34.2547,0.42503,0.42,0.41,0.0230,,,1.5255,39.92,38.928,26.9616,26.9565,0.1953,95.2344,0.0000e+00,1.0000e-12,,,,,,,
CalCOFI,0804JD,039,,02-Apr-2008 19:46:46,02-Apr-2008 11:46:46,32.33332,-121.69334,086.7 080.0,086.7,080.0,466.000,469.816,6.0871,6.0893,34.2594,34.2570,34.2530,34.2546,0.45378,0.45,0.44,0.0231,,,1.5653,41.14,40.179,26.9616,26.9563,0.1957,95.2252,0.0000e+00,1.0000e-12,,,,,,,
CalCOFI,0804JD,039,,02-Apr-2008 19:46:47,02-Apr-2008 11:46:47,32.33332,-121.69334,086.7 080.0,086.7,080.0,465.000,468.806,6.0920,6.0944,34.2597,34.2573,34.2529,34.2545,0.45559,0.45,0.44,0.0231,,,1.5683,41.23,40.273,26.9612,26.9555,0.1955,95.2302,0.0000e+00,1.0000e-12,,,,,,,
CalCOFI,0804JD,039,,02-Apr-2008 19:46:48,02-Apr-2008 11:46:48,32.33332,-121.69334,086.7 080.0,086.7,080.0,464.000,467.797,6.1001,6.1022,34.2591,34.2567,34.2524,34.2540,0.43054,0.42,0.42,0.0234,,,1.5779,41.53,40.575,26.9597,26.9542,0.1953,95.2338,0.0000e+00,1.0000e-12,,,,,,,
CalCOFI,0804JD,039,,02-Apr-2008 19:46:50,02-Apr-2008 11:46:50,32.33332,-121.69334,086.7 080.0,086.7,080.0,463.000,466.788,6.1030,6.1047,34.2586,34.2562,34.2522,34.2538,0.45758,0.45,0.45,0.0234,,,1.5364,40.26,39.270,26.9589,26.9536,0.1948,95.2455,0.0000e+00,1.0000e-12,,,,,,,
CalCOFI,0804JD,039,,02-Apr-2008 19:46:50,02-Apr-2008 11:46:50,32.33332,-121.69334,086.7 080.0,086.7,080.0,462.000,465.778,6.1099,6.1123,34.2581,34.2557,34.2516,34.2532,0.46008,0.45,0.45,0.0236,,,1.5517,40.72,39.751,26.9577,26.9522,0.1965,95.2066,0.0000e+00,1.0000e-12,,,,,,,
CalCOFI,0804JD,039,,02-Apr-2008 19:46:51,02-Apr-2008 11:46:51,32.33332,-121.69334,086.7 080.0,086.7,080.0,461.000,464.769,6.1169,6.1189,34.2574,34.2550,34.2508,34.2524,0.43137,0.42,0.42,0.0237,,,1.5559,40.85,39.883,26.9561,26.9507,0.1955,95.2297,0.0000e+00,1.0000e-12,,,,,,,
CalCOFI,0804JD,039,,02-Apr-2008 19:46:52,02-Apr-2008 11:46:52,32.33332,-121.69334,086.7 080.0,086.7,080.0,460.000,463.760,6.1227,6.1250,34.2567,34.2543,34.2497,34.2513,0.46552,0.46,0.45,0.0230,,,1.5182,39.70,38.698,26.9549,26.9490,0.1956,95.2272,0.0000e+00,1.0000e-12,,,,,,,
CalCOFI,0804JD,039,,02-Apr-2008 19:46:53,02-Apr-2008 11:46:53,32.33332,-121.69334,086.7 080.0,086.7,080.0,459.000,462.750,6.1428,6.1452,34.2559,34.2535,34.2488,34.2504,0.46806,0.46,0.46,0.0236,,,1.5627,41.06,40.097,26.9517,26.9457,0.1955,95.2305,0.0000e+00,1.0000e-12,,,,,,,
CalCOFI,0804JD,039,,02-Apr-2008 19:46:54,02-Apr-2008 11:46:54,32.33332,-121.69334,086.7 080.0,086.7,080.0,458.000,461.741,6.1587,6.1607,34.2549,34.2525,34.2486,34.2502,0.44614,0.44,0.43,0.0234,,,1.5457,40.54,39.563,26.9489,26.9436,0.1961,95.2164,0.0000e+00,1.0000e-12,,,,,,,
CalCOFI,0804JD,039,,02-Apr-2008 19:46:55,02-Apr-2008 11:46:55,32.33332,-121.69334,086.7 080.0,086.7,080.0,457.000,460.732,6.1601,6.1638,34.2549,34.2525,34.2483,34.2499,0.47379,0.47,0.46,0.0237,,,1.5367,40.27,39.280,26.9487,26.9429,0.2134,94.8050,0.0000e+00,1.0000e-12,,,,,,,
CalCOFI,0804JD,039,,02-Apr-2008 19:46:56,02-Apr-2008 11:46:56,32.33332,-121.69334,086.7 080.0,086.7,080.0,456.000,459.723,6.1649,6.1669,34.2546,34.2522,34.2481,34.2497,0.47504,0.47,0.46,0.0238,,,1.5434,40.47,39.490,26.9478,26.9424,0.1960,95.2177,0.0000e+00,1.0000e-12,,,,,,,
CalCOFI,0804JD,039,,02-Apr-2008 19:46:57,02-Apr-2008 11:46:57,32.33332,-121.69334,086.7 080.0,086.7,080.0,455.000,458.713,6.1724,6.1741,34.2550,34.2526,34.2485,34.2501,0.46701,0.46,0.46,0.0235,,,1.5584,40.93,39.962,26.9472,26.9418,0.1956,95.2271,0.0000e+00,1.0000e-12,,,,,,,
CalCOFI,0804JD,039,,02-Apr-2008 19:46:58,02-Apr-2008 11:46:58,32.33332,-121.69334,086.7 080.0,086.7,080.0,454.000,457.704,6.1799,6.1819,34.2558,34.2534,34.2489,34.2505,0.45308,0.45,0.44,0.0236,,,1.6140,42.63,41.709,26.9468,26.9411,0.1953,95.2349,0.0000e+00,1.0000e-12,,,,,,,
CalCOFI,0804JD,039,,02-Apr-2008 19:46:59,02-Apr-2008 11:46:59,32.33332,-121.69334,086.7 080.0,086.7,080.0,453.000,456.695,6.1969,6.2002,34.2564,34.2540,34.2495,34.2511,0.48022,0.47,0.47,0.0235,,,1.5446,40.51,39.528,26.9451,26.9392,0.1953,95.2354,0.0000e+00,1.0000e-12,,,,,,,
CalCOFI,0804JD,039,,02-Apr-2008 19:47:00,02-Apr-2008 11:47:00,32.33332,-121.69334,086.7 080.0,086.7,080.0,452.000,455.685,6.2155,6.2155,34.2558,34.2534,34.2494,34.2510,0.46389,0.46,0.45,0.0236,,,1.5354,40.23,39.239,26.9423,26.9372,0.1959,95.2208,0.0000e+00,1.0000e-12,,,,,,,
CalCOFI,0804JD,039,,02-Apr-2008 19:47:01,02-Apr-2008 11:47:01,32.33332,-121.69334,086.7 080.0,086.7,080.0,451.000,454.676,6.2258,6.2256,34.2554,34.2530,34.2489,34.2505,0.48493,0.48,0.47,0.0239,,,1.5629,41.07,40.103,26.9406,26.9355,0.1960,95.2170,0.0000e+00,1.0000e-12,,,,,,,
CalCOFI,0804JD,039,,02-Apr-2008 19:47:02,02-Apr-2008 11:47:02,32.33332,-121.69334,086.7 080.0,086.7,080.0,450.000,453.667,6.2315,6.2334,34.2550,34.2526,34.2488,34.2504,0.48859,0.48,0.48,0.0230,,,1.5395,40.35,39.368,26.9396,26.9344,0.1948,95.2460,0.0000e+00,1.0000e-12,,,,,,,
CalCOFI,0804JD,039,,02-Apr-2008 19:47:03,02-Apr-2008 11:47:03,32.33332,-121.69334,086.7 080.0,086.7,080.0,449.000,452.658,6.2373,6.2391,34.2548,34.2524,34.2485,34.2501,0.47099,0.46,0.46,0.0229,,,1.4904,38.85,37.825,26.9386,26.9335,0.1954,95.2311,0.0000e+00,1.0000e-12,,,,,,,
CalCOFI,0804JD,039,,02-Apr-2008 19:47:04,02-Apr-2008 11:47:04,32.33332,-121.69334,086.7 080.0,086.7,080.0,448.000,451.648,6.2411,6.2428,34.2543,34.2519,34.2482,34.2498,0.47527,0.47,0.46,0.0229,,,1.4992,39.12,38.101,26.9377,26.9327,0.1951,95.2384,0.0000e+00,1.0000e-12,,,,,,,
CalCOFI,0804JD,039,,02-Apr-2008 19:47:05,02-Apr-2008 11:47:05,32.33332,-121.69334,086.7 080.0,086.7,080.0,447.000,450.639,6.2418,6.2434,34.2527,34.2503,34.2469,34.2485,0.49359,0.49,0.48,0.0240,,,1.5238,39.87,38.874,26.9364,26.9316,0.1951,95.2398,0.0000e+00,1.0000e-12,,,,,,,
CalCOFI,0804JD,039,,02-Apr-2008 19:47:06,02-Apr-2008 11:47:06,32.33332,-121.69334,086.7 080.0,086.7,080.0,446.000,449.630,6.2406,6.2422,34.2518,34.2494,34.2457,34.2473,0.49157,0.48,0.48,0.0236,,,1.5500,40.67,39.698,26.9358,26.9308,0.1954,95.2322,0.0000e+00,1.0000e-12,,,,,,,
CalCOFI,0804JD,039,,02-Apr-2008 19:47:07,02-Apr-2008 11:47:07,32.33332,-121.69334,086.7 080.0,086.7,080.0,445.000,448.621,6.2387,6.2399,34.2498,34.2474,34.2440,34.2456,0.48114,0.47,0.47,0.0235,,,1.5687,41.24,40.285,26.9345,26.9297,0.1957,95.2251,0.0000e+00,1.0000e-12,,,,,,,
CalCOFI,0804JD,039,,02-Apr-2008 19:47:08,02-Apr-2008 11:47:08,32.33332,-121.69334,086.7 080.0,086.7,080.0,444.000,447.612,6.2371,6.2385,34.2487,34.2463,34.2427,34.2443,0.50250,0.50,0.49,0.0233,,,1.4812,38.57,37.536,26.9337,26.9288,0.1950,95.2414,0.0000e+00,1.0000e-12,,,,,,,
CalCOFI,0804JD,039,,02-Apr-2008 19:47:09,02-Apr-2008 11:47:09,32.33332,-121.69334,086.7 080.0,086.7,080.0,443.000,446.602,6.2374,6.2389,34.2481,34.2457,34.2424,34.2440,0.50272,0.50,0.49,0.0235,,,1.5298,40.05,39.063,26.9332,26.9285,0.1956,95.2271,0.0000e+00,1.0000e-12,,,,,,,
CalCOFI,0804JD,039,,02-Apr-2008 19:47:09,02-Apr-2008 11:47:09,32.33332,-121.69334,086.7 080.0,086.7,080.0,442.000,445.593,6.2381,6.2396,34.2479,34.2455,34.2420,34.2436,0.47374,0.47,0.46,0.0234,,,1.5357,40.23,39.248,26.9330,26.9281,0.1967,95.2012,0.0000e+00,1.0000e-12,,,,,,,
CalCOFI,0804JD,039,,02-Apr-2008 19:47:10,02-Apr-2008 11:47:10,32.33332,-121.69334,086.7 080.0,086.7,080.0,441.000,444.584,6.2390,6.2405,34.2479,34.2455,34.2420,34.2436,0.50572,0.50,0.50,0.0235,,,1.5350,40.21,39.226,26.9329,26.9280,0.1958,95.2219,0.0000e+00,1.0000e-12,,,,,,,
CalCOFI,0804JD,039,,02-Apr-2008 19:47:11,02-Apr-2008 11:47:11,32.33332,-121.69334,086.7 080.0,086.7,080.0,440.000,443.575,6.2421,6.2436,34.2481,34.2457,34.2419,34.2435,0.50757,0.50,0.50,0.0233,,,1.5614,41.02,40.056,26.9326,26.9275,0.1959,95.2195,0.0000e+00,1.0000e-12,,,,,,,
CalCOFI,0804JD,039,,02-Apr-2008 19:47:13,02-Apr-2008 11:47:13,32.33332,-121.69334,086.7 080.0,086.7,080.0,439.000,442.565,6.2467,6.2496,34.2483,34.2459,34.2423,34.2439,0.50996,0.50,0.50,0.0234,,,1.5171,39.67,38.664,26.9322,26.9271,0.1958,95.2229,0.0000e+00,1.0000e-12,,,,,,,
CalCOFI,0804JD,039,,02-Apr-2008 19:47:15,02-Apr-2008 11:47:15,32.33332,-121.69334,086.7 080.0,086.7,080.0,438.000,441.556,6.2556,6.2587,34.2484,34.2460,34.2424,34.2440,0.50917,0.50,0.50,0.0236,,,1.5185,39.71,38.708,26.9311,26.9259,0.1967,95.2009,0.0000e+00,1.0000e-12,,,,,,,
CalCOFI,0804JD,039,,02-Apr-2008 19:47:16,02-Apr-2008 11:47:16,32.33332,-121.69334,086.7 080.0,086.7,080.0,437.000,440.547,6.2705,6.2755,34.2505,34.2481,34.2432,34.2448,0.48861,0.48,0.48,0.0235,,,1.5446,40.51,39.528,26.9309,26.9244,0.1976,95.1785,0.0000e+00,1.0000e-12,,,,,,,
CalCOFI,0804JD,039,,02-Apr-2008 19:47:16,02-Apr-2008 11:47:16,32.33332,-121.69334,086.7 080.0,086.7,080.0,436.000,439.538,6.3051,6.3078,34.2509,34.2485,34.2441,34.2457,0.51484,0.51,0.50,0.0236,,,1.5141,39.57,38.570,26.9267,26.9210,0.1958,95.2213,0.0000e+00,1.0000e-12,436,6.32 ,34.245,  .50,,,39.2
CalCOFI,0804JD,039,,02-Apr-2008 19:47:49,02-Apr-2008 11:47:49,32.33351,-121.69334,086.7 080.0,086.7,080.0,435.000,438.529,6.3092,6.3106,34.2476,34.2452,34.2422,34.2438,0.52011,0.51,0.51,0.0235,,,1.5252,39.91,38.918,26.9235,26.9191,0.1966,95.2044,0.0000e+00,1.0000e-12,,,,,,,
CalCOFI,0804JD,039,,02-Apr-2008 19:48:28,02-Apr-2008 11:48:28,32.33366,-121.69334,086.7 080.0,086.7,080.0,434.000,437.520,6.3241,6.3267,34.2479,34.2455,34.2423,34.2439,0.51454,0.51,0.50,0.0234,,,1.5032,39.24,38.227,26.9218,26.9171,0.1962,95.2136,0.0000e+00,1.0000e-12,,,,,,,
CalCOFI,0804JD,039,,02-Apr-2008 19:48:28,02-Apr-2008 11:48:28,32.33366,-121.69334,086.7 080.0,086.7,080.0,433.000,436.510,6.3399,6.3405,34.2486,34.2462,34.2428,34.2444,0.52776,0.52,0.52,0.0233,,,1.4589,37.88,36.835,26.9204,26.9156,0.1960,95.2168,0.0000e+00,1.0000e-12,,,,,,,
CalCOFI,0804JD,039,,02-Apr-2008 19:48:29,02-Apr-2008 11:48:29,32.33366,-121.69334,086.7 080.0,086.7,080.0,432.000,435.501,6.3561,6.3537,34.2489,34.2465,34.2428,34.2444,0.52502,0.52,0.52,0.0233,,,1.4988,39.11,38.089,26.9185,26.9140,0.1965,95.2056,0.0000e+00,1.0000e-12,,,,,,,
CalCOFI,0804JD,039,,02-Apr-2008 19:48:31,02-Apr-2008 11:48:31,32.33366,-121.69334,086.7 080.0,086.7,080.0,431.000,434.492,6.3611,6.3641,34.2491,34.2467,34.2438,34.2454,0.52476,0.52,0.51,0.0237,,,1.5595,40.96,39.996,26.9179,26.9134,0.1964,95.2075,0.0000e+00,1.0000e-12,,,,,,,
CalCOFI,0804JD,039,,02-Apr-2008 19:48:32,02-Apr-2008 11:48:32,32.33366,-121.69334,086.7 080.0,086.7,080.0,430.000,433.483,6.3762,6.3758,34.2506,34.2482,34.2447,34.2463,0.53102,0.52,0.52,0.0234,,,1.5354,40.23,39.239,26.9171,26.9126,0.1961,95.2160,0.0000e+00,1.0000e-12,,,,,,,